Regional Weather Roundup
Issued by NWS Grand Forks, ND

Home | Current Version | Previous Version | Text Only | Print | Product List | Glossary Off
Versions: 1 2 3 4 5 6 7 8 9 10 11 12 13 14 15 16 17 18 19 20 21 22 23 24 25 26 27 28 29 30 31 32 33 34 35 36 37 38 39 40 41 42 43 44 45 46 47 48 49 50

871
ASUS43 KFGF 191631
RWRFGF
PRAIRIE TO PINES  WEATHER ROUNDUP
NATIONAL WEATHER SERVICE EASTERN NORTH DAKOTA/GRAND FORKS ND
1000 AM CST FRI JAN 19 2018

 **SATELLITE DATA USED TO AUGMENT SKY COVER AT AUTOMATED STATIONS**
 *****  WEATHER ACROSS EASTERN NORTH DAKOTA  *****

CITY           SKY/WX    TMP DP  RH WIND       PRES   REMARKS
GRAND FORKS    CLOUDY    40  32  73 W12       29.44S
GRAND FRKS AFB PTSUNNY   42  30  61 W17G23    29.44S
GRAND FRKS NWS   N/A     37 N/A N/A W3          N/A
DEVILS LAKE    PTSUNNY   37  31  78 W15       29.46S
FARGO          FAIR      32  27  81 W10       29.51R WCI  24
WAHPETON ARPT  FAIR      32  27  80 W7        29.54R
$$

 ***** WEATHER ACROSS CENTRAL AND WESTERN NORTH DAKOTA  *****

CITY           SKY/WX    TMP DP  RH WIND       PRES   REMARKS
BISMARCK       FAIR      29  25  85 W3        29.58R
MINOT          FAIR      41  29  62 W14       29.50R
JAMESTOWN      FAIR      34  27  75 NW5       29.50F
MINOT AFB      PTSUNNY   38  29  70 W16       29.48R
GARRISON         N/A     40  28  62 W14       29.52F
WILLISTON      FAIR      42  31  64 W12       29.58R
DICKINSON      CLOUDY    36  31  82 W10       29.58R
HETTINGER      PTSUNNY   31  27  85 W8        29.65R WCI  23
$$

 *****  OTHER AIRPORT OBSERVATIONS IN OUR AREA  *****

CITY           SKY/WX    TMP DP  RH WIND       PRES   REMARKS
WALHALLA       FAIR      43  30  61 W13G24    29.39R
GRAFTON AIRPOR PTSUNNY   37  32  81 W14       29.41F
VALLEY CITY AR FAIR      30  30 100 W6        29.52S WCI  24
CANDO          FAIR      39  32  75 W20G26    29.47R
CAVALIER APRT    N/A     43  30  61 W16       29.39R
GWINNER          N/A     32  27  80 W5        29.52F
ROLLA          FAIR      39  30  70 W17G28    29.44R
 ***** THE ABOVE OBSERVATIONS ARE NON NWS ARE NOT QUALITY
       CONTROLLED AND MAY MIS-REPORT RAIN FOR SNOW...
$$

  *****  WEATHER ACROSS NORTHERN MINNESOTA  *****

CITY           SKY/WX    TMP DP  RH WIND       PRES   REMARKS
FLAG ISLAND    PTSUNNY   39  30  70 W17       29.34R
WARROAD        FAIR      39  32  75 SW14      29.39R
ROSEAU         LGT RAIN  39  34  81 W13G20    29.41R
HALLOCK        PTSUNNY   34  30  86 SE9       29.40F
THF RVR FALLS  CLOUDY    31  27  85 SW8       29.47R WCI  23
BAUDETTE       CLOUDY    36  29  75 SW9       29.36R
WASKISH        PTSUNNY   37  30  75 W12       29.42R
CROOKSTON      FAIR      30  27  86 S13       29.47F WCI  20
STEPHEN NDAWN    N/A     36  30  80 SW8         N/A
GREENBUSH NDAW   N/A     36  30  80 SW10        N/A
$$
  *****  WEATHER ACROSS CENTRAL AND WEST MINNESOTA  *****

CITY           SKY/WX    TMP DP  RH WIND       PRES   REMARKS
FOSSTON        FAIR      28  25  86 SW9       29.49R WCI  20
BEMIDJI        FAIR      36  28  71 W9        29.45R
PARK RAPIDS    FAIR      32  26  78 SW5       29.45F
ELBOW LAKE     FAIR      32  28  83 S6        29.49F
WADENA         FAIR      34  25  69 W6        29.46F
DETROIT LAKES  FAIR      36  28  75 W7        29.51R
MOORHEAD       FAIR      28  25  86 SW3       29.52R
FERGUS FALLS   FAIR      30  27  86 W6        29.52R WCI  24
MORRIS MN      FAIR      34  28  80 CALM      29.49S
STAPLES        FAIR      30  25  80 CALM      29.46F
$$
  *****  WEATHER ELSEWHERE ACROSS MINNESOTA  *****

CITY           SKY/WX    TMP DP  RH WIND       PRES   REMARKS
DULUTH         FAIR      32  26  78 SW10      29.46F WCI  24
INTRNTL FALLS  CLOUDY    35  27  72 SW8       29.36S
ELY            FAIR      34  27  75 S8        29.38F
CLOQUET        FAIR      30  25  80 SW7       29.49S WCI  23
WHEATON        FAIR      34  27  75 CALM      29.53R
BRAINERD       FAIR      32  26  78 S3        29.50S
HIBBING        FAIR      29  25  85 S5        29.42F WCI  24
ALEXANDRIA     FAIR      36  27  69 CALM      29.50R
SAINT CLOUD    FAIR      32  27  81 SE6       29.53R
MINNEAPOLIS    CLOUDY    32  27  81 SE6       29.57F
$$

  *****  WEATHER ACROSS SOUTH DAKOTA  *****

CITY           SKY/WX    TMP DP  RH WIND       PRES   REMARKS
SIOUX FALLS    CLOUDY    36  29  75 SW9       29.55F
BROOKINGS      FAIR      32  27  81 S13       29.52F WCI  22
WATERTOWN      FAIR      31  28  89 SW7       29.53R WCI  24
HURON          FAIR      31  28  89 NW3       29.55R
SISSETON         N/A     38  29  70 SE7       29.49S
ABERDEEN       FAIR      26  23  88 SW8       29.55R WCI  18
MITCHELL       FAIR      37  31  78 CALM      29.56R
PIERRE         FAIR      33  28  81 NW6       29.56R
MOBRIDGE       FAIR      32  26  78 N9        29.55R WCI  24
RAPID CITY     FAIR      41  29  62 N29G35    29.64R
$$

  *****  SOME WEATHER IN NEARBY STATES *****

CITY           SKY/WX    TMP DP  RH WIND       PRES   REMARKS
GLASGOW MT     FAIR      36  29  75 W8        29.62S
GREAT FALLS MT FAIR      32  27  81 W6        29.65S
CHEYENNE WY    FAIR      50  19  29 SW5       29.81S
SCOTTSBLUFF NE FAIR      34  27  75 N7        29.74R
OMAHA NE       CLOUDY    35  25  66 S14       29.75S
DES MOINES IA  CLOUDY    36  24  62 SW14      29.78F
DAVENPORT IA   FAIR      35  21  56 S16G24    29.87F
CHICAGO IL     PTSUNNY   33  19  56 SW16G24   29.89S WCI  23
EAU CLAIRE WI  FAIR      29  23  78 S9        29.62F WCI  20
LA CROSSE WI   FAIR      31  23  72 S10       29.71S WCI  22
$$

  *****  SOME NATIONAL WEATHER *****

CITY           SKY/WX    TMP DP  RH WIND       PRES   REMARKS
LA GUARDIA NY  CLOUDY    33  12  41 W13       30.07F WCI  24
RALEIGH NC     FAIR      38  21  50 SW3       30.24S
ATLANTA GA     FAIR      40  13  33 NW9       30.33R
NEW ORLEANS LA PTSUNNY   47  27  45 VRB5      30.40R
OKLAHOMA CITY  PTSUNNY   40  22  48 S17       30.05F
ALBUQUERQUE NM PTSUNNY   32  12  43 S8        30.15F WCI  25
SALT LAKE CITY PTSUNNY   57  30  35 S22G30    29.79R
LOS ANGELES CA PTSUNNY   59  57  93 E3        30.03R FOG
BOISE ID       CLOUDY    37  35  92 CALM      29.90R
SEATTLE WA     CLOUDY    41  36  82 S9        29.86R
$$

*** WEATHER ACROSS MANITOBA...SASKATCHEWAN AND ONTARIO ***
                ***ONTARIO***

CITY           SKY/WX    TMP DP  RH WIND       PRES   REMARKS
GERALDTON      CLOUDY    30  27  86 S13G18    29.31S WCI  20
THUNDER BAY    CLOUDY    28  27  93 VRB2      29.39S
SIOUX LOOKOUT  PTSUNNY   27  25  93 SW6       29.25F WCI  20
TORONTO        PTSUNNY   28  18  64 SW10G20   29.90S WCI  19
BIG TROUT LK   LGT SNOW   7   1  78 E9        29.31F WCI  -7
PICKLE LAKE    CLOUDY    23  23 100 SW7       29.20S WCI  15
DRYDEN         CLOUDY    28  27  93 SW10      29.28R WCI  19
KENORA         PTSUNNY   30  27  86 SW8       29.29R WCI  23
$$
                *** MANITOBA***

CITY           SKY/WX    TMP DP  RH WIND       PRES   REMARKS
BRANDON        PTSUNNY   34  28  80 W17       29.40R WCI  23
DAUPHIN        MOCLDY    23  23 100 N6        29.39R WCI  16
ISLAND LAKE    LGT SNOW  12   9  85 N8        29.30R WCI   1
PILOT MOUND      N/A     39  30  70 W13G18      N/A
THE PAS        CLOUDY    10   7  85 N5        29.40R WCI   2
THOMPSON       LGT SNOW   3  -2  78 NE9       29.47R DRFTSNOWWCI -11
WINNIPEG       PTSUNNY   37  30  75 W17       29.34R
LYNN LAKE      FLURRIES   1  -2  85 NE9       29.49R WCI -14
CHURCHILL      FLURRIES   3   0  85 E10       29.70R WCI -12
GILLAM         LGT SNOW   0  -4  85 NE13      29.51R WCI -18
$$
                ***SASKATCHEWAN***

CITY           SKY/WX    TMP DP  RH WIND       PRES   REMARKS
ESTEVAN        MOCLDY    34  27  75 W9        29.52R
KINDERSLEY     PTCLDY    21  16  79 W5        29.49R WCI  15
LLOYDMINSTER   PTCLDY    27  19  74 W14       29.41R WCI  15
PRINCE ALBERT  MOCLDY    34  32  93 W9        29.37R
REGINA         PTCLDY    27  21  80 W14       29.49R WCI  15
YORKTON        PTCLDY    32  30  93 W9        29.38R WCI  24
N. BATTLEFORD  CLEAR     30  19  64 W15G22    29.44R WCI  19
LA RONGE       LGT SNOW  12   3  67 E6        29.36R WCI   3
SASKATOON      MOCLDY    25  21  86 SW10      29.44R WCI  15
SWIFT CURRENT  CLEAR     28  21  74 W18G24    29.52R WCI  16
$$
NOTE: THESE ARE AUTOMATED STATIONS WITH LIMITED QUALITY CONTROL
      "FAIR" INDICATES FEW OR NO CLOUDS BELOW 12,000 FEET WITH NO
      SIGNIFICANT WEATHER AND/OR OBSTRUCTIONS TO VISIBILITY.
      SKY/WX - SKY CONDITION AND SIGNIFICANT WEATHER.
      TMP - AIR TEMPERATURE.    DP   - DEWPOINT TEMPERATURE.
      RH  - RELATIVE HUMIDITY.  PRES - PRESSURE.
      HX  - HEAT INDEX.         WCI  - WIND CHILL INDEX.
$




USA.gov is the U.S. government's official web portal to all federal, state and local government web resources and services.